Change the Weather History Date:

Wednesday, September 11, 2013

  Actual Average Record
Temperature  
Mean Temperature 68 °F -  
Max Temperature 84 °F 89 °F 107 °F (1948)
Min Temperature 54 °F 54 °F 45 °F (1956)
Cooling Degree Days 3    
Growing Degree Days 18 (Base 50)    
Moisture  
Dew Point 55 °F    
Average Humidity 63    
Maximum Humidity 86    
Minimum Humidity 41    
Precipitation  
Precipitation 0.00 in - - ()
Sea Level Pressure  
Sea Level Pressure 29.90 in    
Wind  
Wind Speed 5 mph (SSW)    
Max Wind Speed 13 mph    
Max Gust Speed 20 mph    
Visibility 10 miles    
Events      
Averages and records for this station are not official NWS values.
T = Trace of Precipitation, MM = Missing Value Source: NWS Daily Summary

Daily Weather History Graph

Daily Weather History Graph

Search for Another Location

Airport or City:

Trip Planner

Search our weather history database for the weather conditions in past years. The results will help you decide how hot, cold, wet, or windy it might be!

Date:

Astronomy

Sep. 11, 2013 Rise Set
Actual Time 6:46 AM PDT 7:21 PM PDT
Civil Twilight 6:19 AM PDT 7:48 PM PDT
Nautical Twilight 5:48 AM PDT 8:19 PM PDT
Astronomical Twilight 5:15 AM PDT 8:51 PM PDT
Moon 1:14 PM PDT (9/11) 11:27 PM PDT (9/11)
Length of Visible Light 13h 28m
Length of Day
12h 35m
Waxing Crescent, 40% of the Moon is Illuminated
Sep 11
Waxing Crescent
Sep 12
First Quarter
Sep 19
Full
Sep 26
Last Quarter
Oct 4
New

Hourly Weather History & Observations

Time (PDT) Temp. Heat Index Dew Point Humidity Pressure Visibility Wind Dir Wind Speed Gust Speed Precip Events Conditions
12:53 AM 66.9 °F - 53.1 °F 61% 29.81 in 10.0 mi SSW 8.1 mph - N/A   Clear
1:53 AM 62.1 °F - 52.0 °F 70% 29.83 in 10.0 mi Calm Calm - N/A   Clear
2:53 AM 57.9 °F - 51.1 °F 78% 29.85 in 10.0 mi Calm Calm - N/A   Clear
3:53 AM 57.9 °F - 52.0 °F 81% 29.87 in 10.0 mi NW 3.5 mph - N/A   Clear
4:53 AM 57.0 °F - 52.0 °F 83% 29.88 in 10.0 mi Calm Calm - N/A   Clear
5:53 AM 55.9 °F - 51.1 °F 84% 29.90 in 10.0 mi Calm Calm - N/A   Clear
6:53 AM 54.0 °F - 50.0 °F 86% 29.93 in 10.0 mi Calm Calm - N/A   Clear
7:53 AM 57.9 °F - 53.1 °F 84% 29.95 in 10.0 mi Calm Calm - N/A   Clear
8:53 AM 66.0 °F - 55.0 °F 68% 29.96 in 10.0 mi Calm Calm - N/A   Clear
9:53 AM 70.0 °F - 55.0 °F 59% 29.96 in 10.0 mi Calm Calm - N/A   Clear
10:53 AM 73.0 °F - 55.9 °F 55% 29.96 in 10.0 mi South 5.8 mph - N/A   Clear
11:53 AM 75.0 °F - 57.0 °F 53% 29.96 in 10.0 mi SSW 8.1 mph - N/A   Clear
12:53 PM 77.0 °F - 57.0 °F 50% 29.95 in 10.0 mi South 9.2 mph - N/A   Clear
1:53 PM 81.0 °F 81.0 °F 57.0 °F 44% 29.93 in 10.0 mi South 11.5 mph - N/A   Clear
2:53 PM 82.9 °F 82.4 °F 57.0 °F 41% 29.91 in 10.0 mi South 12.7 mph - N/A   Clear
3:53 PM 81.0 °F 81.0 °F 57.0 °F 44% 29.89 in 10.0 mi SSW 11.5 mph 19.6 mph N/A   Clear
4:53 PM 80.1 °F 80.4 °F 57.0 °F 45% 29.88 in 10.0 mi SSW 8.1 mph - N/A   Clear
5:53 PM 80.1 °F 80.4 °F 57.0 °F 45% 29.89 in 10.0 mi SSW 6.9 mph 16.1 mph N/A   Clear
6:53 PM 73.9 °F - 57.0 °F 55% 29.88 in 10.0 mi SW 12.7 mph 19.6 mph N/A   Clear
7:53 PM 70.0 °F - 55.9 °F 61% 29.89 in 10.0 mi SSW 10.4 mph - N/A   Clear
8:53 PM 68.0 °F - 55.9 °F 65% 29.90 in 10.0 mi SW 10.4 mph - N/A   Clear
9:53 PM 66.9 °F - 55.9 °F 68% 29.90 in 10.0 mi SW 6.9 mph - N/A   Clear
10:53 PM 66.0 °F - 55.9 °F 70% 29.90 in 10.0 mi SW 10.4 mph - N/A   Clear
11:53 PM 64.9 °F - 55.9 °F 73% 29.90 in 10.0 mi SW 5.8 mph - N/A   Clear